Hourly Weather Hoyhi

Today, 22 April, Thursday

Time Temperature Precipitation Wind Pressure Humidity
00:00 +10°C° 0 mm 2 mps 625 mmHg 83%
01:00 +10°C° 0 mm 2 mps 625 mmHg 82%
02:00 +10°C° 0 mm 2 mps 625 mmHg 82%
03:00 +10°C° 0 mm 2 mps 625 mmHg 81%
04:00 +10°C° 0.1 mm 2 mps 625 mmHg 80%
05:00 +10°C° 0.1 mm 2 mps 625 mmHg 79%
06:00 +10°C° 0.1 mm 2 mps 625 mmHg 78%
07:00 +13°C° 0.1 mm 2 mps 626 mmHg 72%
08:00 +15°C° 0.1 mm 2 mps 626 mmHg 66%
09:00 +16°C° 0 mm 3 mps 626 mmHg 62%
10:00 +17°C° 0 mm 3 mps 626 mmHg 60%
11:00 +17°C° 0 mm 3 mps 626 mmHg 58%
12:00 +18°C° 0 mm 4 mps 626 mmHg 56%
13:00 +17°C° 0.1 mm 4 mps 626 mmHg 58%
14:00 +17°C° 0.1 mm 4 mps 626 mmHg 61%
15:00 +16°C° 0 mm 3 mps 626 mmHg 62%
16:00 +14°C° 0.6 mm 3 mps 625 mmHg 70%
17:00 +12°C° 0.6 mm 3 mps 625 mmHg 78%
18:00 +11°C° 0.6 mm 3 mps 625 mmHg 86%
19:00 +10°C° 0 mm 3 mps 625 mmHg 88%
20:00 +9°C° 0 mm 2 mps 625 mmHg 89%
21:00 +8°C° 0 mm 2 mps 625 mmHg 91%
22:00 +8°C° 0.1 mm 2 mps 624 mmHg 90%
23:00 +8°C° 0.1 mm 2 mps 624 mmHg 89%

Tomorrow, 23 April, Friday

Time Temperature Precipitation Wind Pressure Humidity
00:00 +8°C° 0.1 mm 2 mps 624 mmHg 88%
01:00 +8°C° 0 mm 2 mps 624 mmHg 88%
02:00 +8°C° 0 mm 2 mps 623 mmHg 88%
03:00 +7°C° 0 mm 2 mps 623 mmHg 88%
04:00 +7°C° 0 mm 2 mps 623 mmHg 88%
05:00 +7°C° 0 mm 2 mps 624 mmHg 88%
06:00 +7°C° 0 mm 2 mps 624 mmHg 88%
07:00 +8°C° 0 mm 2 mps 624 mmHg 84%
08:00 +8°C° 0 mm 2 mps 624 mmHg 80%
09:00 +9°C° 0 mm 3 mps 624 mmHg 75%
10:00 +9°C° 0.1 mm 3 mps 625 mmHg 74%
11:00 +9°C° 0.1 mm 3 mps 625 mmHg 72%
12:00 +9°C° 0.1 mm 3 mps 625 mmHg 71%
13:00 +9°C° 0 mm 3 mps 625 mmHg 67%
14:00 +9°C° 0 mm 3 mps 626 mmHg 64%
15:00 +9°C° 0 mm 3 mps 626 mmHg 60%
16:00 +9°C° 0 mm 2 mps 626 mmHg 63%
17:00 +8°C° 0 mm 2 mps 626 mmHg 67%
18:00 +8°C° 0 mm 2 mps 626 mmHg 70%
19:00 +7°C° 0 mm 2 mps 626 mmHg 73%
20:00 +6°C° 0 mm 2 mps 626 mmHg 77%
21:00 +5°C° 0 mm 2 mps 626 mmHg 81%
22:00 +5°C° 0 mm 2 mps 625 mmHg 76%
23:00 +5°C° 0 mm 2 mps 625 mmHg 71%

Day after tomorrow, 24 April, Saturday

Time Temperature Precipitation Wind Pressure Humidity
00:00 +5°C° 0 mm 2 mps 625 mmHg 66%
01:00 +4°C° 0 mm 3 mps 624 mmHg 64%
02:00 +4°C° 0 mm 3 mps 624 mmHg 63%
03:00 +4°C° 0 mm 3 mps 624 mmHg 61%
04:00 +4°C° 0 mm 3 mps 624 mmHg 62%
05:00 +5°C° 0 mm 3 mps 624 mmHg 62%
06:00 +5°C° 0 mm 3 mps 624 mmHg 63%
07:00 +8°C° 0 mm 3 mps 624 mmHg 57%
08:00 +10°C° 0 mm 2 mps 625 mmHg 51%
09:00 +13°C° 0 mm 2 mps 625 mmHg 45%
10:00 +13°C° 0 mm 3 mps 625 mmHg 45%
11:00 +14°C° 0 mm 3 mps 625 mmHg 44%
12:00 +16°C° 0 mm 3 mps 625 mmHg 44%
13:00 +16°C° 0 mm 3 mps 625 mmHg 46%
14:00 +16°C° 0 mm 3 mps 625 mmHg 47%
15:00 +16°C° 0 mm 3 mps 625 mmHg 49%
16:00 +13°C° 0 mm 3 mps 625 mmHg 56%
17:00 +13°C° 0 mm 2 mps 625 mmHg 64%
18:00 +12°C° 0 mm 2 mps 625 mmHg 71%
19:00 +11°C° 0 mm 1 mps 625 mmHg 74%
20:00 +10°C° 0 mm 1 mps 625 mmHg 76%
21:00 +9°C° 0 mm 1 mps 625 mmHg 78%
22:00 +9°C° 0 mm 1 mps 625 mmHg 77%
23:00 +8°C° 0 mm 2 mps 625 mmHg 76%

25 April, Sunday

Time Temperature Precipitation Wind Pressure Humidity
00:00 +7°C° 0 mm 2 mps 625 mmHg 75%
01:00 +7°C° 0 mm 2 mps 625 mmHg 75%
02:00 +7°C° 0 mm 2 mps 625 mmHg 76%
03:00 +7°C° 0 mm 2 mps 624 mmHg 77%
04:00 +7°C° 0 mm 2 mps 625 mmHg 74%
05:00 +9°C° 0 mm 1 mps 625 mmHg 72%
06:00 +10°C° 0 mm 1 mps 625 mmHg 69%
07:00 +10°C° 0 mm 2 mps 625 mmHg 63%
08:00 +13°C° 0 mm 2 mps 625 mmHg 56%
09:00 +15°C° 0 mm 2 mps 626 mmHg 49%
10:00 +16°C° 0 mm 3 mps 626 mmHg 46%
11:00 +17°C° 0 mm 3 mps 626 mmHg 43%
12:00 +18°C° 0 mm 3 mps 626 mmHg 41%
13:00 +18°C° 0 mm 3 mps 626 mmHg 40%
14:00 +18°C° 0 mm 3 mps 626 mmHg 40%
15:00 +18°C° 0 mm 3 mps 625 mmHg 39%
16:00 +17°C° 0 mm 3 mps 625 mmHg 47%
17:00 +16°C° 0 mm 2 mps 625 mmHg 55%
18:00 +14°C° 0 mm 1 mps 624 mmHg 62%
19:00 +14°C° 0 mm 2 mps 624 mmHg 63%
20:00 +12°C° 0 mm 3 mps 624 mmHg 63%
21:00 +11°C° 0 mm 3 mps 624 mmHg 64%
22:00 +11°C° 0 mm 3 mps 623 mmHg 62%
23:00 +11°C° 0 mm 3 mps 623 mmHg 61%

26 April, Monday

Time Temperature Precipitation Wind Pressure Humidity
00:00 +11°C° 0 mm 4 mps 623 mmHg 59%
01:00 +11°C° 0 mm 4 mps 622 mmHg 59%
02:00 +11°C° 0 mm 4 mps 622 mmHg 58%
03:00 +11°C° 0 mm 4 mps 622 mmHg 58%
04:00 +11°C° 0 mm 4 mps 622 mmHg 58%
05:00 +11°C° 0 mm 4 mps 622 mmHg 59%
06:00 +12°C° 0 mm 4 mps 622 mmHg 59%
07:00 +14°C° 0 mm 4 mps 622 mmHg 53%
08:00 +16°C° 0 mm 5 mps 623 mmHg 46%
09:00 +19°C° 0 mm 5 mps 623 mmHg 39%
10:00 +20°C° 0 mm 5 mps 623 mmHg 37%
11:00 +21°C° 0 mm 5 mps 623 mmHg 35%
12:00 +22°C° 0 mm 5 mps 624 mmHg 34%
13:00 +21°C° 0 mm 5 mps 623 mmHg 35%
14:00 +21°C° 0 mm 4 mps 623 mmHg 37%
15:00 +21°C° 0 mm 4 mps 623 mmHg 39%
16:00 +18°C° 0.2 mm 3 mps 623 mmHg 50%
17:00 +16°C° 0.2 mm 2 mps 623 mmHg 61%
18:00 +13°C° 0.2 mm 2 mps 623 mmHg 73%
19:00 +13°C° 0.3 mm 2 mps 622 mmHg 75%
20:00 +12°C° 0.3 mm 2 mps 622 mmHg 78%
21:00 +12°C° 0.3 mm 2 mps 622 mmHg 81%
22:00 +10°C° 0 mm 2 mps 622 mmHg 83%
23:00 +9°C° 0 mm 2 mps 622 mmHg 86%

27 April, Tuesday

Time Temperature Precipitation Wind Pressure Humidity
00:00 +9°C° 0 mm 2 mps 621 mmHg 88%
01:00 +8°C° 0 mm 2 mps 621 mmHg 89%
02:00 +8°C° 0 mm 2 mps 621 mmHg 90%
03:00 +8°C° 0 mm 2 mps 621 mmHg 91%
04:00 +8°C° 0 mm 2 mps 621 mmHg 91%
05:00 +8°C° 0 mm 2 mps 621 mmHg 92%
06:00 +8°C° 0 mm 2 mps 622 mmHg 93%
07:00 +10°C° 0 mm 2 mps 622 mmHg 85%
08:00 +12°C° 0 mm 2 mps 622 mmHg 77%
09:00 +13°C° 0 mm 3 mps 623 mmHg 69%
10:00 +13°C° 0 mm 3 mps 623 mmHg 69%
11:00 +13°C° 0 mm 3 mps 623 mmHg 69%
12:00 +13°C° 0 mm 3 mps 623 mmHg 69%
13:00 +12°C° 0.3 mm 3 mps 623 mmHg 76%
14:00 +10°C° 0.3 mm 2 mps 623 mmHg 82%
15:00 +9°C° 0.3 mm 2 mps 623 mmHg 88%
16:00 +9°C° 0.2 mm 2 mps 622 mmHg 88%
17:00 +9°C° 0.2 mm 2 mps 622 mmHg 87%
18:00 +9°C° 0.2 mm 2 mps 622 mmHg 86%
19:00 +9°C° 0 mm 2 mps 622 mmHg 87%
20:00 +9°C° 0 mm 2 mps 623 mmHg 88%
21:00 +8°C° 0 mm 2 mps 623 mmHg 89%
22:00 +9°C° 0 mm 1 mps 623 mmHg 90%
23:00 +9°C° 0 mm 1 mps 622 mmHg 90%
Show more

We Need Your Consent

Meteoprog and our Service Providers may store and access personal data such as cookies, device identifiers or other similar technologies on your device and process such data to personalise content and ads, as well as provide social media features and to analyse the traffic.

  • Store and/or access information on your device

    Cookies, device identifiers or other information can be stored or accessed on your device for the purposes indicated above.

  • Personalised ads and content, ad and content measurement, audience insights, and products development

    Ads and content can be personalised based on a profile. More data can be added to better personalise ads and content. Ad and content performance can be measured. Insights about the audience who saw the ads and content can be derived. Such data can be used to develop or improve user’s experience, systems and software.

By clicking ‘I Agree’ you will allow the use of indicated cookies, device identifiers, web beacons or other similar technologies. Your settings can be changed in the browser on your device.

For certain purposes, legitimate interests may be relied on, rather than consent. You can read more about this in our Privacy and Cookie Policy.